Regional Weather Roundup
Issued by NWS

Home | Current Version | Previous Version | Text Only | Print | Product List | Glossary Off
Versions: 1 2 3 4 5 6 7 8 9 10 11 12 13 14 15 16 17 18 19 20 21 22 23 24 25 26 27 28 29 30 31 32 33 34 35 36 37 38 39 40 41 42 43 44 45 46 47 48 49 50

000
ASUS45 KSLC 011310
RWRUT

UTAH REGIONAL WEATHER ROUNDUP
NATIONAL WEATHER SERVICE SALT LAKE CITY UT
700 AM MDT WED OCT 01 2014

UTZ001>011-023>025-011400-

NORTHERN UTAH

CITY           SKY/WX    TMP DP  RH WIND       PRES   REMARKS
HILL AFB       MOCLDY    43  35  73 N2        30.02R
LOGAN          NOT AVBL
OGDEN          CLOUDY    44  38  79 NE3       30.01R
PROVO AIRPORT  MOCLDY    48  34  57 NW12G21   30.00R
SALT LAKE CITY MOCLDY    48  40  73 W6        30.01R
VERNAL         CLOUDY    47  43  86 E3        29.94S
WENDOVER       CLEAR     46  28  49 NW9       30.07R
HEBER CITY     CLOUDY    43  39  87 S3        29.99R
WEST JORDAN    CLOUDY    45  37  76 W6        30.03R

$$

UTZ012>022-026-027-011400-

SOUTHERN UTAH

CITY           SKY/WX    TMP DP  RH WIND       PRES   REMARKS
BRYCE CANYON   PTCLDY    37  34  89 N6        30.04R WCI  32
CEDAR CITY     CLOUDY    47  45  93 NE3       30.03R
MILFORD        CLOUDY    46  39  76 N14       30.04R
MOAB/CYNLANDS  LGT RAIN  50  49  96 E6        29.93
PRICE          MOCLDY    45  41  86 NW5       29.96R
ST GEORGE      PTSUNNY   55  41  58 SE7       29.90R
KANAB          CLOUDY    43  43 100 CALM      29.98R

$$

REGIONAL REPORTS     COLORADO/ARIZONA

CITY           SKY/WX    TMP DP  RH WIND       PRES   REMARKS
CRAIG, CO      LGT RAIN  43  40  89 W7        29.99R
GRAND JUNCTION RAIN      45  43  93 NW15      29.96R
RIFLE          CLOUDY    44  41  89 NE3       29.95R
MONTROSE       CLOUDY    46  41  82 NW10      29.97R
CORTEZ         MOCLDY    43  40  89 E3        29.96R
PAGE, AZ       NOT AVBL
GRAND CANYON   CLEAR     34  32  92 CALM      30.04R FOG
KINGMAN        CLEAR     57  40  52 SE9       29.88R
FLAGSTAFF      CLEAR     36  32  85 CALM      30.06R

$$

REGIONAL REPORTS    NEVADA/IDAHO/WYOMING

CITY           SKY/WX    TMP DP  RH WIND       PRES   REMARKS
LAS VEGAS, NV  PTCLDY    69  37  30 S6        29.79R
ELY            CLEAR     35  29  78 W9        30.09R WCI  28
ELKO           CLEAR     30  26  85 CALM      30.13R
POCATELLO, ID  CLOUDY    43  39  86 SW12      30.05R
BURLEY         CLOUDY    42  36  79 VRB6      30.07R
EVANSTON, WY   PTCLDY    34  27  75 W12       30.01R WCI  25
ROCK SPRINGS   PTCLDY    35  32  88 W7        29.98R WCI  29

$$


USA.gov is the U.S. government's official web portal to all federal, state and local government web resources and services.